User: anonymous   Login
Location: Unspecified
(0.0000°N, 0.0000°E)
Time: 19:02:04
(UTC+00:00)
Language:

STARLINK-6096 - Orbit

View from above orbital plane
View from above orbital plane
View from above satellite
View from above satellite

Ground track
Ground track

The orbit is defined by the following mean orbital elements,

1 56103U          26145.19025705 +.00000000 +00000-0 +14807-4 0 00009
2 56103  43.0047  89.3181 0001372 265.0590  95.0105 15.27576976    00
Epoch (UTC): 25 May 2026 04:33:58
Eccentricity: 0.0001372
inclination: 43.0047°
perigee height: 482 km
apogee height: 484 km
right ascension of ascending node: 89.3181°
argument of perigee: 265.0590°
revolutions per day: 15.27576976
mean anomaly at epoch: 95.0105°

The dashed part of the orbit path shows where the satellite is in the earth's shadow,  

DLR